Flag for U.S.A. Weather past 2 weeks in Amarillo, Texas, U.S.A.

Now
29 °F

Clear.


Feels Like: 21 °F
Forecast: 24 / 55 °F
Wind: 8 mph from South

Location: Amarillo International Airport

Current Time: Mar 5, 2015 at 10:42:05 PM

Latest Report: Mar 5, 2015 at 9:53 PM


Visibility: 10 mi

Pressure: 30.44 "Hg

Humidity: 82%

Dew point: 24 °F

Location of AmarilloLocation

Historic Weather in Amarillo — Graph

°F

Amarillo temperature yesterday

Maximum temperature yesterday: 36 °F (at 12:53 AM)
Minimum temperature yesterday: 20 °F (at 9:53 AM)
Average temperature yesterday: 24 °F

Past Weeks' High & Low Weather Summary

 TemperatureHumidityPressure
High74 °F (Feb 20, 2:53 PM)100% (Mar 2, 9:00 AM)30.66 "Hg (Mar 2, 9:00 AM)
Low11 °F (Feb 23, 6:53 AM)11% (Feb 20, 4:53 PM)29.55 "Hg (Feb 20, 5:53 PM)
Average30 °F75%30.16 "Hg
* Reported Feb 18 8:53 PM — Mar 5 8:53 PM, Amarillo, Weather by CustomWeather, © 2015

Note: Actual official high and low records may vary slightly from our data, if they occured in-between our weather recording intervals... More about our weather records

Advertising

Amarillo weather history for previous 24 hours

 ConditionsComfort  
Time TempWeatherWind HumidityBarometerVisibility
8:53 PM
Thu, Mar 5
31 °FClear.10 mph76%30.44 "Hg10 mi
7:53 PM34 °FClear.12 mph70%30.44 "Hg10 mi
6:53 PM36 °FClear.7 mph52%30.43 "Hg10 mi
5:53 PM44 °FSunny.10 mph40%30.39 "Hg10 mi
4:53 PM45 °FSunny.10 mph37%30.38 "Hg10 mi
3:53 PM44 °FSunny.14 mph41%30.40 "Hg10 mi
2:53 PM44 °FSunny.16 mph43%30.42 "Hg10 mi
1:53 PM41 °FSunny.15 mph51%30.45 "Hg10 mi
12:53 PM39 °FSunny.14 mph53%30.49 "Hg10 mi
11:53 AM35 °FChilly.14 mph56%30.53 "Hg10 mi
10:53 AM32 °FSunny.12 mph59%30.54 "Hg10 mi
9:53 AM29 °FSunny.9 mph64%30.55 "Hg10 mi
8:53 AM25 °FSunny.7 mph78%30.55 "Hg10 mi
7:53 AM17 °FSunny.5 mph88%30.56 "Hg10 mi
6:53 AM13 °FClear.6 mph88%30.57 "Hg10 mi
5:53 AM17 °FClear.8 mph83%30.54 "Hg10 mi
4:53 AM16 °FClear.7 mph87%30.53 "Hg10 mi
3:53 AM15 °FClear.8 mph87%30.53 "Hg10 mi
2:53 AM15 °FClear.7 mph87%30.53 "Hg10 mi
1:53 AM18 °FClear.8 mph88%30.52 "Hg10 mi
12:53 AM19 °FPassing clouds.6 mph81%30.48 "Hg10 mi
11:53 PM
Wed, Mar 4
20 °FMostly cloudy.8 mph78%30.48 "Hg10 mi
10:53 PM22 °FOvercast.7 mph78%30.47 "Hg10 mi
Weather by CustomWeather, © 2015

See weather overviewHow to use our weather pages